AEE283 LGKR-LGAV

Flight info

Callsign AEE283
Flight time 0h 48m
Altitude 29000
Route MALED UM127 ARA UY144 NEMES
Aircraft A321/M-SDE3FGHIRWY/LB1

Departure

Time 2026-05-07 19:48
Airport Corfu Ioannis Kapodistrias International Airport (LGKR)

Arrival

Time 2026-05-07 20:36
Airport Athens Eleftherios Venizelos International Airport (LGAV)
Time Latitude Longitude Altitude Speed Heading
2026-05-07 19:24 39.60759 19.91334 20 ft 0 kts 78°
2026-05-07 19:37 39.60756 19.91320 19 ft 4 kts 80°
2026-05-07 19:37 39.60754 19.91285 18 ft 4 kts 97°
2026-05-07 19:38 39.60762 19.91258 20 ft 4 kts 154°
2026-05-07 19:38 39.60768 19.91254 18 ft 0 kts 168°
2026-05-07 19:41 39.60766 19.91254 18 ft 1 kts 168°
2026-05-07 19:41 39.60742 19.91261 18 ft 7 kts 168°
2026-05-07 19:42 39.60691 19.91274 18 ft 6 kts 169°
2026-05-07 19:42 39.60652 19.91269 18 ft 8 kts 202°
2026-05-07 19:42 39.60604 19.91226 18 ft 8 kts 220°
2026-05-07 19:42 39.60552 19.91176 14 ft 12 kts 208°
2026-05-07 19:43 39.60475 19.91144 14 ft 11 kts 183°
2026-05-07 19:43 39.60403 19.91158 14 ft 12 kts 168°
2026-05-07 19:43 39.60287 19.91190 16 ft 22 kts 168°
2026-05-07 19:43 39.60138 19.91228 17 ft 20 kts 169°
2026-05-07 19:44 39.59995 19.91264 16 ft 23 kts 169°
2026-05-07 19:44 39.59822 19.91310 17 ft 27 kts 168°
2026-05-07 19:44 39.59663 19.91351 15 ft 21 kts 168°
2026-05-07 19:44 39.59527 19.91386 13 ft 18 kts 168°
2026-05-07 19:45 39.59407 19.91417 12 ft 18 kts 168°
2026-05-07 19:45 39.59287 19.91449 13 ft 16 kts 169°
2026-05-07 19:45 39.59215 19.91477 13 ft 8 kts 145°
2026-05-07 19:45 39.59174 19.91510 13 ft 6 kts 178°
2026-05-07 19:46 39.59162 19.91495 13 ft 1 kts 285°
2026-05-07 19:46 39.59178 19.91481 13 ft 4 kts 331°
2026-05-07 19:46 39.59198 19.91472 13 ft 0 kts 348°
2026-05-07 19:47 39.59206 19.91470 13 ft 12 kts 348°
2026-05-07 19:47 39.59574 19.91374 14 ft 93 kts 348°
2026-05-07 19:47 39.60434 19.91150 32 ft 155 kts 348°
2026-05-07 19:47 39.61541 19.90861 570 ft 168 kts 350°
2026-05-07 19:48 39.62695 19.91013 1190 ft 172 kts 33°
2026-05-07 19:48 39.63406 19.92191 1875 ft 165 kts 77°
2026-05-07 19:48 39.63422 19.93688 2234 ft 176 kts 112°
2026-05-07 19:48 39.62638 19.94961 2489 ft 194 kts 149°
2026-05-07 19:49 39.61238 19.95286 2677 ft 221 kts 181°
2026-05-07 19:49 39.59654 19.95086 3046 ft 238 kts 185°
2026-05-07 19:49 39.57965 19.94816 3664 ft 247 kts 181°
2026-05-07 19:49 39.56304 19.95303 4435 ft 251 kts 150°
2026-05-07 19:50 39.54968 19.96792 5248 ft 256 kts 140°
2026-05-07 19:50 39.53607 19.98286 6048 ft 257 kts 144°
2026-05-07 19:50 39.52171 19.99691 6810 ft 260 kts 146°
2026-05-07 19:50 39.50701 20.01089 7546 ft 264 kts 147°
2026-05-07 19:51 39.49215 20.02511 8288 ft 267 kts 147°
2026-05-07 19:51 39.47719 20.03964 9026 ft 271 kts 147°
2026-05-07 19:51 39.46209 20.05452 9778 ft 274 kts 147°
2026-05-07 19:51 39.44681 20.06972 10324 ft 285 kts 147°
2026-05-07 19:52 39.43052 20.08604 10489 ft 308 kts 146°
2026-05-07 19:52 39.41317 20.10383 10676 ft 328 kts 145°
2026-05-07 19:52 39.39516 20.12260 11157 ft 336 kts 145°
2026-05-07 19:52 39.37685 20.14177 11718 ft 342 kts 145°
2026-05-07 19:53 39.35821 20.16126 12254 ft 348 kts 146°
2026-05-07 19:53 39.33922 20.18101 12830 ft 353 kts 146°
2026-05-07 19:53 39.31995 20.20100 13428 ft 357 kts 146°
2026-05-07 19:53 39.30043 20.22118 14003 ft 362 kts 146°
2026-05-07 19:54 39.28060 20.24160 14541 ft 366 kts 146°
2026-05-07 19:54 39.26054 20.26219 15083 ft 370 kts 146°
2026-05-07 19:54 39.24030 20.28299 15621 ft 374 kts 146°
2026-05-07 19:54 39.21983 20.30407 16171 ft 378 kts 146°
2026-05-07 19:55 39.19918 20.32539 16686 ft 382 kts 146°
2026-05-07 19:55 39.17832 20.34696 17239 ft 386 kts 146°
2026-05-07 19:55 39.15727 20.36870 17738 ft 390 kts 146°
2026-05-07 19:55 39.13598 20.39065 18252 ft 394 kts 146°
2026-05-07 19:56 39.11447 20.41277 18700 ft 397 kts 146°
2026-05-07 19:56 39.09282 20.43497 19120 ft 401 kts 146°
2026-05-07 19:56 39.07083 20.45751 19542 ft 405 kts 146°
2026-05-07 19:56 39.04868 20.48019 19934 ft 409 kts 146°
2026-05-07 19:57 39.02621 20.50292 20319 ft 413 kts 146°
2026-05-07 19:57 39.00341 20.52573 20723 ft 417 kts 146°
2026-05-07 19:57 38.98038 20.54861 21125 ft 420 kts 146°
2026-05-07 19:57 38.95715 20.57165 21539 ft 424 kts 146°
2026-05-07 19:58 38.93370 20.59485 21938 ft 427 kts 146°
2026-05-07 19:58 38.91013 20.61825 22337 ft 430 kts 146°
2026-05-07 19:58 38.88636 20.64188 22734 ft 434 kts 146°
2026-05-07 19:58 38.86243 20.66574 23118 ft 437 kts 145°
2026-05-07 19:59 38.83849 20.69009 23513 ft 441 kts 144°
2026-05-07 19:59 38.81448 20.71485 23847 ft 444 kts 144°
2026-05-07 19:59 38.79034 20.73987 24169 ft 448 kts 144°
2026-05-07 19:59 38.76604 20.76507 24497 ft 451 kts 144°
2026-05-07 20:00 38.74158 20.79038 24812 ft 454 kts 145°
2026-05-07 20:00 38.71690 20.81581 25109 ft 457 kts 144°
2026-05-07 20:00 38.69200 20.84133 25413 ft 460 kts 145°
2026-05-07 20:00 38.66690 20.86698 25716 ft 463 kts 145°
2026-05-07 20:01 38.64163 20.89277 26014 ft 466 kts 145°
2026-05-07 20:01 38.61613 20.91878 26321 ft 469 kts 146°
2026-05-07 20:01 38.59057 20.94492 26609 ft 473 kts 145°
2026-05-07 20:01 38.56521 20.97194 26912 ft 476 kts 143°
2026-05-07 20:02 38.54017 20.99996 27192 ft 480 kts 142°
2026-05-07 20:02 38.51526 21.02869 27439 ft 485 kts 142°
2026-05-07 20:02 38.49871 21.04796 27622 ft 487 kts 142°
2026-05-07 20:02 38.47355 21.07717 27906 ft 490 kts 142°
2026-05-07 20:03 38.43984 21.11576 28280 ft 494 kts 143°
2026-05-07 20:03 38.41404 21.14483 28557 ft 496 kts 143°
2026-05-07 20:03 38.38799 21.17394 28811 ft 500 kts 143°
2026-05-07 20:03 38.36174 21.20319 29053 ft 503 kts 143°
2026-05-07 20:04 38.31815 21.25182 29119 ft 491 kts 143°
2026-05-07 20:04 38.26707 21.30893 29132 ft 487 kts 143°
2026-05-07 20:05 38.21608 21.36589 29138 ft 488 kts 143°
2026-05-07 20:05 38.16700 21.42578 29136 ft 494 kts 132°
2026-05-07 20:06 38.13140 21.50083 29136 ft 499 kts 117°
2026-05-07 20:06 38.10096 21.57997 29115 ft 499 kts 118°
2026-05-07 20:07 38.07021 21.65895 29115 ft 499 kts 118°
2026-05-07 20:07 38.03940 21.73777 29115 ft 499 kts 118°
2026-05-07 20:08 38.00856 21.81665 29125 ft 499 kts 117°
2026-05-07 20:08 37.97770 21.89557 29103 ft 499 kts 117°
2026-05-07 20:09 37.94679 21.97458 29120 ft 500 kts 118°
2026-05-07 20:10 37.90022 22.09307 29147 ft 501 kts 118°
2026-05-07 20:10 37.86909 22.17193 29130 ft 502 kts 117°
2026-05-07 20:11 37.83772 22.25114 29132 ft 504 kts 117°
2026-05-07 20:11 37.80631 22.33031 29128 ft 504 kts 118°
2026-05-07 20:12 37.77501 22.40906 29142 ft 505 kts 117°
2026-05-07 20:12 37.74322 22.48877 29150 ft 505 kts 117°
2026-05-07 20:13 37.71177 22.56738 29163 ft 504 kts 117°
2026-05-07 20:13 37.68115 22.64753 29154 ft 503 kts 115°
2026-05-07 20:14 37.65312 22.72783 29147 ft 503 kts 114°
2026-05-07 20:14 37.62511 22.80873 29149 ft 503 kts 114°
2026-05-07 20:15 37.59650 22.88918 29155 ft 502 kts 114°
2026-05-07 20:15 37.56749 22.96927 29155 ft 502 kts 115°
2026-05-07 20:16 37.53842 23.04922 29147 ft 501 kts 115°
2026-05-07 20:16 37.52395 23.08912 28885 ft 498 kts 115°
2026-05-07 20:16 37.50967 23.12853 28322 ft 492 kts 115°
2026-05-07 20:16 37.49622 23.16785 27757 ft 487 kts 109°
2026-05-07 20:17 37.48710 23.20860 27199 ft 480 kts 99°
2026-05-07 20:17 37.48288 23.24989 26648 ft 472 kts 90°
2026-05-07 20:17 37.48341 23.29079 26124 ft 464 kts 82°
2026-05-07 20:17 37.48660 23.33095 25591 ft 458 kts 82°
2026-05-07 20:18 37.48969 23.37061 25073 ft 453 kts 82°
2026-05-07 20:18 37.49270 23.40986 24563 ft 448 kts 82°
2026-05-07 20:18 37.49564 23.44868 24066 ft 443 kts 82°
2026-05-07 20:18 37.49851 23.48708 23544 ft 438 kts 82°
2026-05-07 20:19 37.50132 23.52506 22960 ft 433 kts 83°
2026-05-07 20:19 37.50411 23.56264 22384 ft 429 kts 83°
2026-05-07 20:19 37.50687 23.59982 21821 ft 425 kts 83°
2026-05-07 20:19 37.50963 23.63669 21266 ft 421 kts 83°
2026-05-07 20:20 37.51236 23.67317 20724 ft 417 kts 83°
2026-05-07 20:20 37.51506 23.70937 20189 ft 413 kts 83°
2026-05-07 20:20 37.51940 23.74480 19663 ft 407 kts 72°
2026-05-07 20:20 37.53053 23.77697 19144 ft 397 kts 54°
2026-05-07 20:21 37.54787 23.80330 18659 ft 386 kts 38°
2026-05-07 20:21 37.56864 23.82432 18099 ft 381 kts 35°
2026-05-07 20:21 37.58942 23.84481 17530 ft 377 kts 35°
2026-05-07 20:21 37.60999 23.86512 16965 ft 374 kts 35°
2026-05-07 20:22 37.63036 23.88529 16414 ft 371 kts 35°
2026-05-07 20:22 37.65056 23.90532 15867 ft 368 kts 34°
2026-05-07 20:22 37.67061 23.92520 15332 ft 365 kts 34°
2026-05-07 20:22 37.69047 23.94495 14813 ft 362 kts 34°
2026-05-07 20:23 37.71021 23.96459 14291 ft 360 kts 34°
2026-05-07 20:23 37.72982 23.98409 13766 ft 357 kts 34°
2026-05-07 20:23 37.74928 24.00341 13195 ft 355 kts 35°
2026-05-07 20:23 37.76865 24.02267 12618 ft 353 kts 35°
2026-05-07 20:24 37.78778 24.04177 12085 ft 349 kts 36°
2026-05-07 20:24 37.80640 24.06039 11727 ft 329 kts 36°
2026-05-07 20:24 37.82367 24.07776 11384 ft 306 kts 36°
2026-05-07 20:24 37.84002 24.09422 11051 ft 298 kts 36°
2026-05-07 20:25 37.85616 24.11037 10713 ft 295 kts 36°
2026-05-07 20:25 37.87221 24.12634 10382 ft 292 kts 36°
2026-05-07 20:25 37.88807 24.14210 10068 ft 287 kts 36°
2026-05-07 20:25 37.90347 24.15747 9741 ft 280 kts 37°
2026-05-07 20:26 37.91868 24.17269 9405 ft 277 kts 36°
2026-05-07 20:26 37.93372 24.18779 9074 ft 275 kts 36°
2026-05-07 20:26 37.94864 24.20277 8735 ft 273 kts 36°
2026-05-07 20:26 37.96347 24.21766 8398 ft 270 kts 36°
2026-05-07 20:27 37.97828 24.23210 8036 ft 268 kts 30°
2026-05-07 20:27 37.99500 24.24074 7701 ft 251 kts
2026-05-07 20:27 38.01197 24.24111 7390 ft 242 kts 347°
2026-05-07 20:27 38.02751 24.23461 7080 ft 237 kts 333°
2026-05-07 20:28 38.04257 24.22617 6775 ft 236 kts 334°
2026-05-07 20:28 38.05738 24.21760 6487 ft 230 kts 328°
2026-05-07 20:28 38.06986 24.20605 6149 ft 218 kts 317°
2026-05-07 20:28 38.08134 24.19392 5845 ft 210 kts 318°
2026-05-07 20:29 38.09128 24.18103 5520 ft 200 kts 303°
2026-05-07 20:29 38.09756 24.16570 5201 ft 193 kts 287°
2026-05-07 20:29 38.10020 24.14922 4889 ft 188 kts 271°
2026-05-07 20:29 38.10143 24.13286 4560 ft 185 kts 272°
2026-05-07 20:30 38.10266 24.11668 4235 ft 183 kts 270°
2026-05-07 20:30 38.10163 24.10175 4065 ft 170 kts 251°
2026-05-07 20:30 38.09684 24.08872 3902 ft 158 kts 232°
2026-05-07 20:30 38.08950 24.07911 3747 ft 147 kts 216°
2026-05-07 20:31 38.08143 24.07141 3559 ft 144 kts 215°
2026-05-07 20:31 38.07342 24.06376 3387 ft 145 kts 214°
2026-05-07 20:31 38.06538 24.05607 3193 ft 144 kts 215°
2026-05-07 20:31 38.05741 24.04846 3006 ft 143 kts 215°
2026-05-07 20:32 38.04949 24.04089 2810 ft 142 kts 216°
2026-05-07 20:32 38.04165 24.03340 2633 ft 140 kts 215°
2026-05-07 20:32 38.03388 24.02598 2444 ft 141 kts 215°
2026-05-07 20:32 38.02607 24.01853 2262 ft 140 kts 216°
2026-05-07 20:33 38.01825 24.01106 2079 ft 141 kts 216°
2026-05-07 20:33 38.01033 24.00351 1891 ft 143 kts 216°
2026-05-07 20:33 38.00253 23.99606 1700 ft 139 kts 216°
2026-05-07 20:33 37.99497 23.98885 1503 ft 135 kts 217°
2026-05-07 20:34 37.98746 23.98169 1333 ft 134 kts 216°
2026-05-07 20:34 37.97999 23.97457 1150 ft 136 kts 217°
2026-05-07 20:34 37.97245 23.96738 956 ft 136 kts 218°
2026-05-07 20:34 37.96480 23.96010 785 ft 139 kts 219°
2026-05-07 20:35 37.95706 23.95272 599 ft 139 kts 219°
2026-05-07 20:35 37.94934 23.94535 400 ft 139 kts 218°
2026-05-07 20:35 37.94184 23.93818 300 ft 124 kts 216°
2026-05-07 20:35 37.93618 23.93287 294 ft 76 kts 217°
2026-05-07 20:36 37.93326 23.93010 292 ft 44 kts 217°
2026-05-07 20:36 37.93156 23.92876 291 ft 25 kts 203°
2026-05-07 20:36 37.93012 23.92829 294 ft 16 kts 189°
2026-05-07 20:36 37.92943 23.92848 298 ft 8 kts 130°
2026-05-07 20:37 37.92936 23.92902 300 ft 7 kts 76°
2026-05-07 20:37 37.92969 23.92949 299 ft 8 kts 37°
2026-05-07 20:37 37.93027 23.93005 301 ft 13 kts 37°
2026-05-07 20:37 37.93114 23.93087 299 ft 18 kts 37°
2026-05-07 20:38 37.93219 23.93186 300 ft 18 kts 37°
2026-05-07 20:38 37.93316 23.93279 300 ft 19 kts 37°
2026-05-07 20:38 37.93412 23.93371 302 ft 12 kts 40°
2026-05-07 20:38 37.93418 23.93461 302 ft 13 kts 122°
2026-05-07 20:39 37.93353 23.93568 302 ft 18 kts 127°
2026-05-07 20:39 37.93269 23.93711 301 ft 21 kts 126°
2026-05-07 20:39 37.93189 23.93846 303 ft 18 kts 128°
2026-05-07 20:39 37.93112 23.93971 303 ft 15 kts 127°
2026-05-07 20:40 37.93112 23.94069 304 ft 11 kts 50°
2026-05-07 20:40 37.93172 23.94128 305 ft 11 kts 36°
2026-05-07 20:40 37.93233 23.94183 303 ft 11 kts 36°
2026-05-07 20:40 37.93282 23.94247 305 ft 10 kts 68°
2026-05-07 20:41 37.93261 23.94324 303 ft 10 kts 126°
2026-05-07 20:41 37.93219 23.94400 303 ft 11 kts 124°
2026-05-07 20:41 37.93169 23.94481 301 ft 12 kts 127°
2026-05-07 20:41 37.93195 23.94573 302 ft 13 kts 40°
2026-05-07 20:42 37.93270 23.94644 302 ft 13 kts 36°
2026-05-07 20:42 37.93340 23.94709 301 ft 10 kts 35°
2026-05-07 20:42 37.93379 23.94704 301 ft 4 kts 321°
2026-05-07 20:42 37.93394 23.94682 301 ft 2 kts 310°
2026-05-07 20:43 37.93402 23.94669 301 ft 2 kts 308°
2026-05-07 20:43 37.93409 23.94658 302 ft 0 kts 307°
2026-05-07 20:43 37.93409 23.94657 302 ft 0 kts 307°
2026-05-07 20:43 37.93410 23.94656 302 ft 0 kts 307°
2026-05-07 20:44 37.93412 23.94653 302 ft 0 kts 307°